Hourly Weather Cerny-en-Laonnois

Today, 14 June, Monday

Time Temperature Precipitation Wind Pressure Humidity
00:00 +15°C° 0 mm 1 mps 759 mmHg 86%
01:00 +14°C° 0 mm 1 mps 758 mmHg 87%
02:00 +14°C° 0 mm 1 mps 758 mmHg 87%
03:00 +14°C° 0 mm 1 mps 758 mmHg 88%
04:00 +15°C° 0 mm 1 mps 758 mmHg 85%
05:00 +16°C° 0 mm 1 mps 758 mmHg 81%
06:00 +18°C° 0 mm 1 mps 758 mmHg 77%
07:00 +20°C° 0 mm 1 mps 758 mmHg 72%
08:00 +20°C° 0 mm 2 mps 758 mmHg 67%
09:00 +23°C° 0 mm 2 mps 758 mmHg 61%
10:00 +24°C° 0 mm 2 mps 757 mmHg 58%
11:00 +25°C° 0 mm 1 mps 757 mmHg 55%
12:00 +27°C° 0 mm 1 mps 757 mmHg 52%
13:00 +27°C° 0 mm 1 mps 757 mmHg 52%
14:00 +27°C° 0 mm 1 mps 757 mmHg 51%
15:00 +28°C° 0 mm 1 mps 756 mmHg 51%
16:00 +27°C° 0 mm 1 mps 756 mmHg 57%
17:00 +27°C° 0 mm 1 mps 756 mmHg 64%
18:00 +26°C° 0 mm 1 mps 756 mmHg 71%
19:00 +24°C° 0 mm 1 mps 756 mmHg 75%
20:00 +22°C° 0 mm 1 mps 756 mmHg 78%
21:00 +20°C° 0 mm 1 mps 756 mmHg 82%
22:00 +19°C° 0 mm 1 mps 756 mmHg 84%
23:00 +18°C° 0 mm 1 mps 756 mmHg 86%

Tomorrow, 15 June, Tuesday

Time Temperature Precipitation Wind Pressure Humidity
00:00 +18°C° 0 mm 1 mps 756 mmHg 88%
01:00 +16°C° 0 mm 1 mps 756 mmHg 89%
02:00 +16°C° 0 mm 1 mps 756 mmHg 90%
03:00 +15°C° 0 mm 1 mps 756 mmHg 91%
04:00 +16°C° 0 mm 1 mps 756 mmHg 88%
05:00 +17°C° 0 mm 2 mps 756 mmHg 86%
06:00 +18°C° 0 mm 2 mps 756 mmHg 84%
07:00 +19°C° 0 mm 2 mps 756 mmHg 79%
08:00 +21°C° 0 mm 2 mps 757 mmHg 74%
09:00 +22°C° 0 mm 3 mps 757 mmHg 69%
10:00 +24°C° 0 mm 2 mps 757 mmHg 67%
11:00 +25°C° 0 mm 2 mps 756 mmHg 64%
12:00 +26°C° 0 mm 2 mps 756 mmHg 62%
13:00 +27°C° 0 mm 2 mps 756 mmHg 61%
14:00 +27°C° 0 mm 2 mps 756 mmHg 60%
15:00 +27°C° 0 mm 2 mps 755 mmHg 59%
16:00 +26°C° 0 mm 2 mps 755 mmHg 66%
17:00 +25°C° 0 mm 2 mps 755 mmHg 72%
18:00 +24°C° 0 mm 3 mps 755 mmHg 78%
19:00 +22°C° 0 mm 3 mps 755 mmHg 83%
20:00 +20°C° 0 mm 2 mps 755 mmHg 88%
21:00 +19°C° 0 mm 2 mps 755 mmHg 92%
22:00 +18°C° 0 mm 2 mps 754 mmHg 92%
23:00 +18°C° 0 mm 2 mps 754 mmHg 92%

Day after tomorrow, 16 June, Wednesday

Time Temperature Precipitation Wind Pressure Humidity
00:00 +18°C° 0 mm 1 mps 754 mmHg 92%
01:00 +18°C° 0 mm 1 mps 754 mmHg 92%
02:00 +18°C° 0 mm 1 mps 753 mmHg 91%
03:00 +16°C° 0 mm 1 mps 753 mmHg 91%
04:00 +18°C° 0 mm 1 mps 753 mmHg 89%
05:00 +19°C° 0 mm 1 mps 753 mmHg 87%
06:00 +20°C° 0 mm 1 mps 753 mmHg 86%
07:00 +22°C° 0 mm 1 mps 752 mmHg 80%
08:00 +24°C° 0 mm 1 mps 752 mmHg 75%
09:00 +26°C° 0 mm 1 mps 752 mmHg 70%
10:00 +27°C° 0 mm 1 mps 752 mmHg 66%
11:00 +27°C° 0 mm 1 mps 752 mmHg 63%
12:00 +28°C° 0 mm 2 mps 751 mmHg 59%
13:00 +29°C° 0 mm 2 mps 751 mmHg 58%
14:00 +29°C° 0 mm 2 mps 751 mmHg 57%
15:00 +29°C° 0 mm 2 mps 750 mmHg 55%
16:00 +29°C° 0 mm 2 mps 750 mmHg 61%
17:00 +28°C° 0 mm 2 mps 750 mmHg 67%
18:00 +28°C° 0 mm 2 mps 749 mmHg 73%
19:00 +26°C° 0 mm 2 mps 749 mmHg 77%
20:00 +25°C° 0 mm 2 mps 749 mmHg 81%
21:00 +23°C° 0 mm 2 mps 749 mmHg 85%
22:00 +21°C° 0.1 mm 2 mps 749 mmHg 87%
23:00 +21°C° 0.1 mm 2 mps 749 mmHg 90%

17 June, Thursday

Time Temperature Precipitation Wind Pressure Humidity
00:00 +20°C° 0.1 mm 2 mps 748 mmHg 92%
01:00 +20°C° 0.6 mm 2 mps 748 mmHg 93%
02:00 +20°C° 0.6 mm 2 mps 748 mmHg 94%
03:00 +20°C° 0.6 mm 2 mps 748 mmHg 96%
04:00 +20°C° 0.1 mm 3 mps 749 mmHg 96%
05:00 +21°C° 0.1 mm 3 mps 749 mmHg 96%
06:00 +21°C° 0.1 mm 3 mps 749 mmHg 96%
07:00 +22°C° 0.1 mm 3 mps 749 mmHg 91%
08:00 +24°C° 0.1 mm 3 mps 750 mmHg 86%
09:00 +25°C° 0.1 mm 4 mps 750 mmHg 82%
10:00 +26°C° 0.2 mm 4 mps 750 mmHg 77%
11:00 +27°C° 0.2 mm 3 mps 750 mmHg 71%
12:00 +28°C° 0.2 mm 3 mps 750 mmHg 66%
13:00 +28°C° 0.1 mm 3 mps 750 mmHg 66%
14:00 +28°C° 0.1 mm 3 mps 750 mmHg 66%
15:00 +28°C° 0.1 mm 2 mps 750 mmHg 66%
16:00 +28°C° 0.1 mm 2 mps 750 mmHg 70%
17:00 +27°C° 0.1 mm 1 mps 750 mmHg 74%
18:00 +27°C° 0.1 mm 1 mps 750 mmHg 78%
19:00 +25°C° 0.6 mm 1 mps 750 mmHg 82%
20:00 +24°C° 0.6 mm 1 mps 751 mmHg 86%
21:00 +22°C° 0.6 mm 1 mps 751 mmHg 91%
22:00 +22°C° 2.3 mm 1 mps 751 mmHg 93%
23:00 +20°C° 2.3 mm 2 mps 751 mmHg 95%

18 June, Friday

Time Temperature Precipitation Wind Pressure Humidity
00:00 +20°C° 2.3 mm 2 mps 751 mmHg 98%
01:00 +20°C° 0.4 mm 3 mps 751 mmHg 97%
02:00 +20°C° 0.4 mm 3 mps 751 mmHg 97%
03:00 +19°C° 0.4 mm 3 mps 751 mmHg 97%
04:00 +20°C° 0.2 mm 3 mps 751 mmHg 96%
05:00 +20°C° 0.2 mm 3 mps 751 mmHg 95%
06:00 +20°C° 0.2 mm 3 mps 751 mmHg 94%
07:00 +21°C° 0 mm 3 mps 751 mmHg 87%
08:00 +23°C° 0 mm 4 mps 751 mmHg 80%
09:00 +25°C° 0 mm 5 mps 751 mmHg 74%
10:00 +25°C° 0.4 mm 5 mps 751 mmHg 75%
11:00 +24°C° 0.4 mm 6 mps 751 mmHg 76%
12:00 +24°C° 0.4 mm 6 mps 751 mmHg 76%
13:00 +24°C° 0.5 mm 6 mps 751 mmHg 78%
14:00 +24°C° 0.5 mm 7 mps 751 mmHg 79%
15:00 +23°C° 0.5 mm 7 mps 750 mmHg 80%
16:00 +23°C° 0.2 mm 6 mps 750 mmHg 81%
17:00 +23°C° 0.2 mm 6 mps 750 mmHg 82%
18:00 +22°C° 0.2 mm 5 mps 750 mmHg 84%
19:00 +21°C° 0 mm 4 mps 751 mmHg 87%
20:00 +20°C° 0 mm 4 mps 751 mmHg 91%
21:00 +19°C° 0 mm 3 mps 752 mmHg 95%
22:00 +18°C° 0 mm 3 mps 752 mmHg 96%
23:00 +18°C° 0 mm 2 mps 752 mmHg 96%

19 June, Saturday

Time Temperature Precipitation Wind Pressure Humidity
00:00 +17°C° 0 mm 2 mps 752 mmHg 97%
01:00 +17°C° 0 mm 2 mps 752 mmHg 97%
02:00 +17°C° 0 mm 2 mps 752 mmHg 97%
03:00 +16°C° 0 mm 2 mps 752 mmHg 97%
04:00 +17°C° 0 mm 2 mps 752 mmHg 95%
05:00 +18°C° 0 mm 2 mps 753 mmHg 93%
06:00 +20°C° 0 mm 1 mps 753 mmHg 92%
07:00 +20°C° 0 mm 2 mps 753 mmHg 87%
08:00 +21°C° 0 mm 2 mps 753 mmHg 82%
09:00 +23°C° 0 mm 2 mps 753 mmHg 77%
10:00 +25°C° 0 mm 2 mps 753 mmHg 73%
11:00 +26°C° 0 mm 2 mps 753 mmHg 68%
12:00 +27°C° 0 mm 2 mps 752 mmHg 64%
13:00 +27°C° 0.1 mm 2 mps 752 mmHg 65%
14:00 +27°C° 0.1 mm 2 mps 751 mmHg 66%
15:00 +27°C° 0.1 mm 3 mps 751 mmHg 67%
16:00 +26°C° 0.2 mm 3 mps 750 mmHg 72%
17:00 +26°C° 0.2 mm 3 mps 749 mmHg 77%
18:00 +25°C° 0.2 mm 4 mps 748 mmHg 83%
19:00 +22°C° 6.8 mm 3 mps 748 mmHg 87%
20:00 +20°C° 6.8 mm 3 mps 747 mmHg 91%
21:00 +18°C° 6.8 mm 3 mps 747 mmHg 96%
22:00 +18°C° 4 mm 3 mps 747 mmHg 96%
23:00 +18°C° 4 mm 4 mps 747 mmHg 96%
Show more

We Need Your Consent

Meteoprog and our Service Providers may store and access personal data such as cookies, device identifiers or other similar technologies on your device and process such data to personalise content and ads, as well as provide social media features and to analyse the traffic.

  • Store and/or access information on your device

    Cookies, device identifiers or other information can be stored or accessed on your device for the purposes indicated above.

  • Personalised ads and content, ad and content measurement, audience insights, and products development

    Ads and content can be personalised based on a profile. More data can be added to better personalise ads and content. Ad and content performance can be measured. Insights about the audience who saw the ads and content can be derived. Such data can be used to develop or improve user’s experience, systems and software.

By clicking ‘I Agree’ you will allow the use of indicated cookies, device identifiers, web beacons or other similar technologies. Your settings can be changed in the browser on your device.

For certain purposes, legitimate interests may be relied on, rather than consent. You can read more about this in our Privacy and Cookie Policy.